CW1923 Weather Reports


time (UTC)temp
F
wind
direction
speed
knots
gust
knots
rain 1hr
in
rain 24hr
in
rain mn
in
humidity
%
barometer
mb
20260506202905 52 93 1.7 6.1 0.00 0.07 0.04 80 1012.1
20260506202406 52 93 1.7 6.1 0.00 0.07 0.04 80 1012.0
20260506201404 52 145 0.0 3.5 0.00 0.07 0.04 81 1011.8
20260506195906 52 146 1.7 4.3 0.00 0.07 0.04 81 1011.7
20260506195404 52 146 1.7 4.3 0.00 0.07 0.04 81 1011.7
20260506194907 52 147 0.0 4.3 0.00 0.07 0.04 81 1011.6
20260506194404 52 147 0.0 4.3 0.00 0.07 0.04 81 1011.7
20260506193907 52 147 0.0 4.3 0.00 0.07 0.04 81 1011.8
20260506192838 52 148 1.7 9.6 0.01 0.07 0.04 80 1011.6
20260506192335 52 147 1.7 9.6 0.01 0.07 0.04 80 1011.5
20260506191333 53 25 0.0 3.5 0.01 0.07 0.04 79 1011.5
20260506190330 53 118 1.7 6.1 0.01 0.07 0.04 78 1011.3
20260506185832 53 118 1.7 9.6 0.01 0.07 0.04 78 1011.2
20260506185333 53 84 1.7 9.6 0.01 0.07 0.04 78 1011.3
20260506184824 53 81 1.7 3.5 0.01 0.07 0.04 77 1011.1
20260506184324 53 81 1.7 4.3 0.01 0.07 0.04 77 1011.1
20260506183822 53 81 1.7 4.3 0.01 0.07 0.04 75 1011.1
20260506183323 53 6 1.7 4.3 0.00 0.06 0.03 74 1011.1
20260506182816 54 25 1.7 4.3 0.00 0.06 0.03 74 1011.0
20260506182312 54 25 3.5 6.1 0.00 0.06 0.03 73 1011.0
20260506181812 54 25 3.5 6.1 0.00 0.06 0.03 72 1010.9
20260506181309 54 25 3.5 7.8 0.00 0.06 0.03 72 1010.8
20260506180309 55 323 1.7 12.2 0.00 0.06 0.03 70 1010.6
20260506175804 55 25 1.7 12.2 0.00 0.06 0.03 70 1010.6
20260506174805 55 79 3.5 9.6 0.00 0.06 0.03 69 1010.5
20260506174304 55 105 1.7 6.1 0.00 0.06 0.03 69 1010.4
20260506173804 56 5 1.7 4.3 0.00 0.06 0.03 68 1010.2
20260506173304 56 1 3.5 4.3 0.00 0.06 0.03 67 1010.2
20260506172804 56 11 3.5 7.8 0.00 0.06 0.03 66 1010.2
20260506172306 57 19 3.5 7.8 0.00 0.06 0.03 66 1010.2
20260506171804 57 345 3.5 7.8 0.00 0.06 0.03 65 1010.1
20260506170802 58 84 1.7 6.1 0.00 0.06 0.03 64 1010.0
20260506165806 58 124 1.7 6.1 0.00 0.06 0.03 63 1009.8
20260506165305 58 112 3.5 10.4 0.00 0.06 0.03 64 1009.8
20260506164804 58 47 3.5 10.4 0.00 0.06 0.03 65 1009.7
20260506164305 57 12 3.5 6.1 0.00 0.06 0.03 65 1009.7
20260506163305 58 12 1.7 7.8 0.00 0.06 0.03 65 1009.5
20260506162804 58 12 1.7 6.1 0.00 0.06 0.03 65 1009.4
20260506161805 58 349 1.7 9.6 0.00 0.06 0.03 67 1009.4
20260506161303 58 72 1.7 3.5 0.00 0.06 0.03 68 1009.4
20260506160803 58 72 1.7 4.3 0.00 0.06 0.03 69 1009.4
20260506160304 58 54 1.7 4.3 0.00 0.06 0.03 68 1009.5
20260506155805 58 56 1.7 4.3 0.00 0.06 0.03 68 1009.4
20260506155306 58 56 1.7 4.3 0.00 0.06 0.03 68 1009.3
20260506154806 58 55 1.7 4.3 0.00 0.06 0.03 67 1009.4
20260506154306 58 339 1.7 4.3 0.00 0.06 0.03 67 1009.4
20260506153303 59 16 1.7 6.1 0.00 0.06 0.03 67 1009.3
20260506152803 59 95 1.7 9.6 0.00 0.06 0.03 67 1009.3
20260506152306 59 16 1.7 9.6 0.00 0.06 0.03 66 1009.2
20260506151304 59 105 1.7 6.1 0.00 0.07 0.03 65 1009.2
20260506150305 60 61 0.0 3.5 0.00 0.07 0.03 64 1009.2
20260506145804 60 61 1.7 4.3 0.00 0.07 0.03 65 1009.2
20260506145305 59 61 1.7 4.3 0.00 0.07 0.03 65 1009.2
20260506144803 59 74 1.7 3.5 0.00 0.07 0.03 66 1009.1
20260506144303 59 60 1.7 4.3 0.00 0.07 0.03 65 1009.1
20260506143803 59 61 1.7 4.3 0.00 0.07 0.03 64 1009.2
20260506143302 59 59 1.7 4.3 0.00 0.07 0.03 64 1009.1
20260506142747 59 62 3.5 4.3 0.00 0.07 0.03 63 1009.1
20260506141747 60 77 1.7 6.1 0.00 0.07 0.03 63 1009.1
20260506141246 60 4 1.7 6.1 0.00 0.07 0.03 63 1009.1
20260506140246 60 14 1.7 6.1 0.00 0.07 0.03 63 1009.1
20260506135742 61 35 3.5 7.8 0.00 0.07 0.03 62 1009.1
20260506135241 61 128 3.5 7.8 0.00 0.07 0.03 62 1009.1
20260506134741 61 359 1.7 6.1 0.00 0.07 0.03 63 1009.0
20260506134236 61 1 1.7 6.1 0.00 0.07 0.03 62 1009.0
20260506133737 62 5 3.5 6.1 0.00 0.07 0.03 61 1009.0
20260506133236 62 53 3.5 4.3 0.00 0.07 0.03 62 1009.1
20260506132737 60 79 3.5 6.1 0.00 0.07 0.03 65 1009.1
20260506132248 60 358 3.5 6.1 0.00 0.07 0.03 66 1009.0
20260506131737 60 60 3.5 6.1 0.00 0.07 0.03 66 1009.0
20260506131234 60 355 3.5 6.1 0.00 0.07 0.03 65 1009.0
20260506130734 60 20 3.5 6.1 0.00 0.07 0.03 66 1009.0
20260506125733 59 16 1.7 4.3 0.00 0.07 0.03 68 1008.9
20260506124733 58 56 1.7 4.3 0.00 0.07 0.03 70 1008.9
20260506123731 58 52 0.0 4.3 0.00 0.07 0.03 71 1009.0
20260506123230 57 48 1.7 4.3 0.00 0.07 0.03 71 1009.0
20260506122732 57 48 1.7 4.3 0.00 0.07 0.03 71 1009.0
20260506122233 58 129 1.7 3.5 0.00 0.07 0.03 72 1008.9
20260506121731 58 141 1.7 4.3 0.00 0.07 0.03 72 1008.9
20260506121229 58 64 3.5 6.1 0.00 0.07 0.03 71 1008.9
20260506120729 59 359 1.7 6.1 0.00 0.07 0.03 72 1008.9
20260506120225 58 337 1.7 6.1 0.00 0.07 0.03 74 1008.9
20260506115726 58 359 1.7 6.1 0.00 0.07 0.03 74 1008.8
20260506115223 58 106 1.7 4.3 0.00 0.07 0.03 74 1008.9
20260506114717 58 56 1.7 4.3 0.00 0.07 0.03 74 1008.8
20260506114218 58 119 1.7 4.3 0.00 0.07 0.03 74 1008.8
20260506113720 58 42 1.7 4.3 0.00 0.07 0.03 74 1008.8
20260506113219 58 30 1.7 4.3 0.00 0.07 0.03 75 1008.8
20260506111716 58 62 3.5 9.6 0.00 0.08 0.03 75 1008.8
20260506111209 58 6 3.5 9.6 0.00 0.08 0.03 74 1008.7
20260506110710 59 74 1.7 7.8 0.00 0.08 0.03 74 1008.7
20260506110210 60 44 1.7 6.1 0.00 0.08 0.03 75 1008.8
20260506105709 59 59 1.7 7.8 0.00 0.08 0.03 77 1008.8
20260506105205 58 18 3.5 7.8 0.00 0.08 0.03 77 1008.8
20260506104706 58 52 1.7 6.1 0.00 0.08 0.03 80 1008.8
20260506104206 57 352 3.5 7.8 0.00 0.08 0.03 80 1008.9
20260506103709 57 43 3.5 7.8 0.00 0.08 0.03 80 1009.0
20260506103208 57 353 1.7 7.8 0.00 0.08 0.03 83 1008.8
20260506102705 56 25 1.7 6.1 0.00 0.08 0.03 85 1008.8
20260506102205 56 7 1.7 6.1 0.00 0.08 0.03 87 1008.8
20260506101703 56 3 1.7 6.1 0.00 0.08 0.03 88 1008.8
20260506100659 55 43 1.7 4.3 0.00 0.08 0.03 92 1008.9
20260506100158 54 49 1.7 4.3 0.00 0.08 0.03 94 1008.8
20260506095659 53 49 1.7 4.3 0.00 0.08 0.03 95 1008.7
20260506094650 52 49 1.7 4.3 0.00 0.08 0.03 96 1008.7
20260506094149 52 49 1.7 4.3 0.00 0.08 0.03 96 1008.7
20260506093147 52 48 0.0 4.3 0.00 0.08 0.03 97 1008.6
20260506092646 52 55 0.0 3.5 0.00 0.08 0.03 97 1008.7
20260506092138 52 56 0.0 3.5 0.00 0.08 0.03 97 1008.7
20260506091635 51 56 1.7 4.3 0.00 0.08 0.03 97 1008.7
20260506091133 51 54 0.0 4.3 0.00 0.08 0.03 97 1008.6
20260506090631 51 56 1.7 4.3 0.00 0.08 0.03 97 1008.6
20260506090132 51 56 1.7 4.3 0.00 0.08 0.03 97 1008.6
20260506085132 51 60 0.0 3.5 0.00 0.08 0.03 98 1008.6
20260506084633 51 60 0.0 3.5 0.00 0.08 0.03 97 1008.5
20260506083632 50 60 0.0 0.0 0.00 0.08 0.03 97 1008.5
20260506083132 50 61 0.0 0.0 0.00 0.08 0.03 97 1008.5
20260506082633 50 62 0.0 0.0 0.00 0.08 0.03 97 1008.4
20260506082131 50 62 0.0 0.0 0.00 0.08 0.03 97 1008.4
20260506081132 50 53 0.0 0.0 0.00 0.08 0.03 97 1008.4
20260506080618 50 55 0.0 0.0 0.00 0.08 0.03 98 1008.5
20260506080116 49 56 0.0 0.0 0.00 0.08 0.03 97 1008.5
20260506073108 49 56 0.0 0.0 0.00 0.08 0.03 97 1008.3
20260506072105 49 93 0.0 1.7 0.00 0.08 0.03 97 1008.2
20260506071104 49 72 0.0 3.5 0.00 0.08 0.03 97 1008.2
20260506070603 49 74 0.0 3.5 0.00 0.08 0.03 97 1008.3
20260506070109 49 68 0.0 1.7 0.00 0.08 0.03 97 1008.3
20260506062023 48 62 1.7 3.5 0.00 0.08 0.03 97 1008.1
20260506061513 48 77 0.0 3.5 0.00 0.08 0.03 97 1008.1
20260506060505 48 320 0.0 3.5 0.00 0.08 0.03 97 1008.1
20260506050438 48 21 0.0 4.3 0.00 0.08 0.03 96 1007.9
20260506044939 48 21 0.0 3.5 0.00 0.08 0.03 96 1007.9
20260506043934 48 18 0.0 3.5 0.00 0.08 0.03 96 1007.9
20260506043433 48 18 0.0 4.3 0.00 0.08 0.03 96 1007.9
20260506042936 48 18 1.7 6.1 0.00 0.08 0.03 96 1007.9
20260506042431 48 25 1.7 6.1 0.00 0.08 0.03 96 1007.9
20260506041932 48 39 0.0 4.3 0.00 0.08 0.03 96 1007.9
20260506041434 48 7 0.0 3.5 0.00 0.08 0.03 96 1008.0
20260506040935 48 7 0.0 3.5 0.01 0.08 0.03 96 1007.9
20260506040433 48 7 0.0 3.5 0.01 0.08 0.03 96 1007.9
20260506035431 48 9 0.0 3.5 0.01 0.08 0.03 96 1008.0
20260506034431 48 10 0.0 6.1 0.01 0.08 0.03 96 1008.0
20260506033930 48 349 0.0 3.5 0.01 0.08 0.03 96 1007.9
20260506033432 48 349 0.0 3.5 0.01 0.08 0.03 96 1008.0
20260506032930 48 349 0.0 3.5 0.01 0.08 0.03 96 1008.0
20260506032432 48 349 0.0 3.5 0.01 0.08 0.03 96 1007.9
20260506031912 48 349 0.0 1.7 0.01 0.08 0.03 96 1008.0
20260506030907 48 349 0.0 3.5 0.00 0.07 0.02 96 1008.1
20260506030408 48 15 0.0 3.5 0.00 0.07 0.02 96 1008.1
20260506025909 48 357 0.0 3.5 0.00 0.07 0.02 96 1008.2
20260506025405 48 357 0.0 3.5 0.00 0.07 0.02 96 1008.2
20260506024905 48 357 0.0 3.5 0.00 0.07 0.02 96 1008.2
20260506024405 48 357 0.0 3.5 0.00 0.07 0.02 96 1008.2
20260506023904 48 357 0.0 3.5 0.00 0.07 0.02 96 1008.3
20260506022850 48 357 0.0 1.7 0.00 0.07 0.02 96 1008.3
20260506022336 48 357 0.0 1.7 0.00 0.07 0.02 96 1008.3
20260506021337 48 357 0.0 3.5 0.00 0.07 0.02 96 1008.3
20260506020324 48 357 0.0 3.5 0.00 0.07 0.02 96 1008.3
20260506015318 48 357 0.0 3.5 0.00 0.07 0.02 96 1008.4
20260506014808 48 349 0.0 0.0 0.00 0.07 0.02 96 1008.3
20260506014307 48 349 0.0 1.7 0.00 0.07 0.02 96 1008.3
20260506013805 48 349 0.0 3.5 0.00 0.07 0.02 96 1008.4
20260506013306 48 348 0.0 3.5 0.00 0.07 0.02 96 1008.4
20260506012806 48 345 1.7 3.5 0.01 0.07 0.02 96 1008.4
20260506012307 49 347 1.7 4.3 0.01 0.07 0.02 96 1008.4
20260506011804 49 345 0.0 4.3 0.01 0.07 0.02 96 1008.4
20260506010805 49 330 0.0 0.0 0.01 0.07 0.02 96 1008.4
20260506010305 49 330 0.0 0.0 0.01 0.07 0.02 97 1008.4
20260506005806 49 330 0.0 0.0 0.01 0.07 0.02 97 1008.5
20260506005305 49 330 0.0 3.5 0.01 0.07 0.02 97 1008.5
20260506004805 49 330 0.0 3.5 0.01 0.07 0.02 97 1008.6
20260506004304 49 330 0.0 1.7 0.01 0.07 0.02 97 1008.6
20260506003802 49 330 0.0 1.7 0.01 0.07 0.02 97 1008.6
20260506003302 49 330 0.0 3.5 0.01 0.07 0.02 97 1008.7
20260506002749 49 330 0.0 3.5 0.01 0.06 0.02 97 1008.7
20260506002241 49 329 0.0 3.5 0.01 0.06 0.02 97 1008.7
20260506001740 49 329 0.0 3.5 0.01 0.06 0.02 97 1008.8
20260506001240 49 329 0.0 3.5 0.01 0.06 0.02 97 1008.8
20260506000733 49 328 0.0 3.5 0.01 0.06 0.02 97 1008.8
20260505235734 49 326 0.0 1.7 0.01 0.06 0.02 97 1008.9
20260505234231 49 322 0.0 1.7 0.01 0.06 0.02 97 1008.9
20260505233230 50 322 0.0 1.7 0.01 0.06 0.02 97 1008.9
20260505232731 50 322 0.0 1.7 0.00 0.06 0.01 97 1009.0
20260505231734 50 322 0.0 0.0 0.01 0.06 0.01 97 1009.0
20260505231232 50 322 0.0 0.0 0.01 0.06 0.01 97 1009.0
20260505230734 50 322 0.0 0.0 0.01 0.06 0.01 97 1009.1
20260505230230 50 322 0.0 1.7 0.01 0.07 0.01 97 1009.1
20260505225731 50 322 0.0 1.7 0.01 0.07 0.01 97 1009.2
20260505224731 50 322 0.0 1.7 0.02 0.08 0.01 97 1009.2
20260505224233 50 322 0.0 1.7 0.02 0.09 0.01 97 1009.3
20260505223731 50 322 0.0 1.7 0.02 0.09 0.01 97 1009.3
20260505223233 50 322 0.0 1.7 0.02 0.09 0.01 97 1009.3
20260505222734 50 322 0.0 1.7 0.02 0.09 0.01 97 1009.2
20260505222233 50 322 0.0 1.7 0.02 0.10 0.01 97 1009.3
20260505221733 51 318 0.0 3.5 0.02 0.10 0.00 97 1009.2
20260505221233 51 318 0.0 3.5 0.02 0.11 0.00 97 1009.2
20260505220733 51 318 1.7 3.5 0.02 0.12 0.00 97 1009.3
20260505220234 51 311 0.0 3.5 0.02 0.12 0.00 97 1009.3
20260505215735 52 0 0.0 0.0 0.02 0.13 0.11 97 1009.4
20260505215232 52 0 0.0 0.0 0.02 0.12 0.11 97 1009.3
20260505214733 51 0 0.0 0.0 0.02 0.12 0.11 97 1009.4
20260505214233 52 0 0.0 0.0 0.02 0.12 0.11 97 1009.4
20260505213731 51 0 0.0 0.0 0.01 0.11 0.10 97 1009.4
20260505213230 52 0 0.0 0.0 0.02 0.11 0.10 97 1009.5
20260505212233 52 0 0.0 0.0 0.02 0.12 0.10 97 1009.5
20260505211734 52 0 0.0 0.0 0.02 0.12 0.10 97 1009.4
20260505211220 52 0 0.0 0.0 0.02 0.12 0.10 97 1009.4
20260505210715 52 0 0.0 0.0 0.01 0.11 0.09 97 1009.4
20260505210210 52 0 0.0 0.0 0.01 0.11 0.09 97 1009.4
20260505205706 52 0 0.0 0.0 0.01 0.11 0.09 97 1009.5
20260505205212 52 0 0.0 0.0 0.01 0.11 0.09 97 1009.5
20260505204705 52 0 0.0 0.0 0.01 0.11 0.09 97 1009.4
20260505204203 52 0 0.0 0.0 0.01 0.11 0.09 97 1009.4